EDRS-C

Last updated on Jan. 23, 2021, 7:16 a.m. UTC

1 44475U 19049A   21022.57415419  .00000166  00000-0  00000-0 0  9993
2 44475   0.0663 271.2054 0000576  21.3807  67.3910  1.00272625  5434
UTC
Height (km)
Latitude
Longitude
Inclination
Orbital Period
UTC large
Height (km)
Speed (km/s)
/
Latitude / Longitude
Inclination (degrees)
Orbital Period (minutes)
Azimuth
Elevation
Range (km)
Doppler Factor
iOS Compass Heading
iOS Angle

Next 30 passes for location: Hong Kong

Rise time Rise Azimuth (degrees) Set time Set Azimuth (degrees) Duration Max altitude (degrees)

No matching passes for this satellites